Погода в Техас Сити

США     29°23′02″N   94°54′08″W
темп.,
°C
ветер,
м/с
пор.,
м/с
влажн.,
%
обл.,
%
осадки,
мм/ч
давл.,
гПа
погр.,
м
16 октября, сб
сб1601:00+21с815650 1.3 1019748
04:00+19с814655 0.0 1021805
07:00+18ссв8155991 0.0 1023834
10:00+18ссв8125585 0.0 1025851
13:00+21ссв794112 0.0 10241117
16:00+22с683772 0.0 10221324
19:00+21ссв5839100 0.0 1023601
22:00+19ссв594568 0.0 1025520
17 октября, вс
вс1701:00+18св4749100 0.0 1025375
04:00+16ссв4652100 0.0 1025296
07:00+16ссв465591 0.0 1025273
10:00+18св45485 0.0 1026548
13:00+20всв343958 0.0 1025915
16:00+21всв343887 0.0 1022982
19:00+19всв1244100 0.0 1022232
22:00+19вюв1244100 0.0 1022235
18 октября, пн
пн1801:00+19в024799 0.0 1021253
04:00+17с235519 0.0 1021162
07:00+17св35605 0.0 1021188
10:00+20всв45550 0.0 1021560
13:00+22всв33470 0.0 10201009
16:00+22в44505 0.0 10181082
19:00+20вюв34635 0.0 1018417
22:00+20вюв35677 0.0 1019383
19 октября, вт
вт1901:00+20юв3568100 0.0 1018359
04:00+20ююв2369100 0.0 1018326
07:00+20в236946 0.0 1018306
10:00+22всв456985 0.0 1019438
13:00+25вюв556495 0.1 10181141
16:00+25вюв5565100 0.2 10171082
19:00+23вюв4669100 0.3 1017383
22:00+23вюв4677100 0.0 1018352
20 октября, ср
ср2001:00+23в3482100 0.2 1017246
04:00+22ссв348181 0.1 1017155
07:00+21с3482100 0.1 1018130
10:00+23с33739 0.0 1020305
13:00+27св21605 0.0 1019944
16:00+28юв21571 0.0 10171090
19:00+25ююв34725 0.0 1017137
22:00+23ю24780 0.0 1018127